Back to catalog

STARLINK-31490

AliveCommunicationsVLEO
NORAD 59222·PAYLOAD·🇺🇸 United States

Launched Mar 11, 2024 from Vandenberg Space Force Base

Loading…

Next Passes (next 24 hours)

TLE

FreshSource: CelesTrak SupGP

Epoch: Sep 15, 2026, 02:33 UTC

1 59222C 24046X   26258.10673611  .00069948  00000+0  20669-2 0  2582
2 59222  53.1601 354.7975 0001242  92.8438 144.0920 15.34351316    14

Track STARLINK-31490 in real time with AllMySat

Download on the App Store